[[{"header":{"parameterUnit":"m.s-1","parameterCategory":1,"la1":30.2991,"la2":30.254,"lo1":-89.0895,"lo2":-89.0444,"dy":0.0017,"dx":0.0017,"nx":28,"ny":28,"refTime":"2024-04-11T09:00:00:Z","depth":0,"parameterNumber":2,"parameterNumberName":"U-component_of_WINDS"},"data":[0,0,0,0,0,0,0,0,0,0,0,0,0,0,0,0,0,0,0,0,0,0,0,0,0,0,0,0,0,0,0,0,0,0,0,0,0,0,0,0,0,0,0,0,0,0,0,0,0,0,0,0,0,0,0,0,0,0,1.5042,1.5042,0,1.5046,1.5046,1.5047,1.5016,1.5015,1.5014,1.5013,1.5017,1.5018,1.5019,0,0,0,0,0,0,0,0,0,0,0,0,0,1.5008,1.5009,1.5042,1.5042,1.5042,1.5046,1.5046,1.5047,1.5016,1.5015,1.5014,1.5013,1.5017,1.5018,1.5019,0,0,0,0,0,0,0,0,0,0,0,0,0,1.5019,1.5009,1.5042,1.5027,1.5026,1.5046,1.5046,1.5047,1.5016,1.5015,1.5013,1.5012,1.5016,1.5018,1.5019,1.5053,0,0,1.5023,1.5024,0,0,0,0,0,0,0,0,1.5018,1.502,1.503,1.5029,1.5027,1.5029,1.5036,1.5049,1.5016,1.502,1.5013,1.5012,1.5022,1.5023,1.5026,1.5053,1.5054,1.5023,1.5024,1.5025,1.5025,0,0,0,0,0,0,0,1.5017,1.502,1.5044,1.503,1.5028,1.5021,1.5021,1.5038,1.5028,1.5019,1.5017,1.5018,1.5021,1.5025,1.5026,1.5054,1.5023,1.5024,1.5025,1.5026,1.5111,1.5112,0,0,0,0,0,0,1.5019,1.5019,1.5044,1.5044,1.5019,1.5023,1.5023,1.503,1.5028,1.5026,1.5019,1.5017,1.5023,1.5025,1.5026,1.5067,1.5025,1.5026,1.5027,1.5109,1.5111,1.5112,0,0,0,0,0,0,1.5018,1.5021,1.5044,1.5031,1.5033,1.5024,1.5033,1.5031,1.5035,1.5028,1.5026,1.5025,1.5022,1.5024,1.5047,1.5067,1.5026,1.5028,1.5107,1.511,1.5112,1.5149,0,0,0,0,0,0,1.5017,1.5021,1.5034,1.5032,1.5034,1.5064,1.5034,1.5032,1.5037,1.5034,1.5033,1.5031,1.5022,1.5045,1.5048,1.5068,1.5029,1.5106,1.5108,1.5111,1.5146,1.5152,1.5157,0,0,0,0,0,1.5016,1.5044,1.5035,1.5038,1.505,1.5065,1.5067,1.5055,1.5039,1.5052,1.5048,1.5031,1.5064,1.5048,1.5051,1.5071,1.5104,1.5108,1.5111,1.5143,1.5151,1.5157,0,0,0,0,0,0,1.5048,1.5043,1.5033,1.506,1.5064,1.506,1.5076,1.5063,1.5071,1.5067,1.5053,1.5053,1.5078,1.5077,1.5059,1.5105,1.5081,1.5086,1.5105,1.5112,1.5118,1.5117,1.503,0,0,0,0,0,1.5058,1.5071,1.5066,1.5091,1.5093,1.5085,1.5091,1.5082,1.5084,1.5085,1.5083,1.5086,1.5097,1.5104,1.5114,1.5146,1.5145,1.5161,1.5167,1.5172,1.5176,1.5193,1.52,1.5123,1.5123,1.5123,0,0,1.5079,1.5078,1.5087,1.5097,1.5099,1.5113,1.5086,1.5101,1.5112,1.5088,1.5109,1.5108,1.511,1.5138,1.515,1.5138,1.5197,1.5176,1.518,1.5181,1.5197,1.5205,1.5211,1.5125,1.5125,1.5125,0,0,1.5125,1.5125,1.5147,1.5149,1.5152,1.5146,1.5151,1.515,1.5148,1.517,1.5152,1.5165,1.5184,1.5187,1.5191,1.524,1.5226,1.5244,1.5274,1.5291,1.5297,1.5302,1.5321,1.5327,1.5247,1.5248,1.5248,0,1.515,1.5171,1.5159,1.5177,1.5182,1.5162,1.5183,1.5186,1.5192,1.5196,1.5183,1.5208,1.5208,1.5236,1.5249,1.5252,1.5258,1.5243,1.5297,1.5302,1.5307,1.5324,1.5331,1.525,1.5249,1.5249,1.5249,0,1.5203,1.5218,1.5235,1.5242,1.5249,1.5269,1.526,1.5269,1.526,1.5256,1.5279,1.5279,1.5289,1.5295,1.5286,1.5323,1.5315,1.53,1.5275,1.5317,1.5333,1.5339,1.5253,1.5252,1.5251,1.5251,0,0,1.5267,1.5269,1.5275,1.5279,1.5281,1.5293,1.5312,1.5322,1.5331,1.5336,1.5352,1.537,1.5356,1.536,1.5352,1.5367,1.5407,1.535,1.535,1.5361,1.5448,1.546,1.5468,1.5398,1.5399,1.54,1.5448,0,1.5312,1.5345,1.5336,1.5369,1.5383,1.5365,1.5382,1.5386,1.5383,1.5394,1.5391,1.5404,1.5385,1.5388,1.5402,1.5399,1.5424,1.5395,1.5413,1.5413,1.5412,1.5476,1.5488,1.5533,1.5454,1.5455,1.5456,0,1.5369,1.5377,1.5412,1.5414,1.542,1.5435,1.5444,1.5456,1.546,1.5457,1.5463,1.5452,1.5471,1.5447,1.5474,1.5455,1.5462,1.5461,1.5463,1.5464,1.5437,1.5479,1.5548,1.5555,1.5466,1.5465,1.5464,0,1.5413,1.5433,1.5457,1.546,1.5463,1.5474,1.5476,1.5479,1.5486,1.5495,1.5499,1.551,1.5515,1.5524,1.5516,1.5499,1.5544,1.552,1.5543,1.5543,1.5552,1.5552,1.5624,1.5557,1.5557,1.5557,1.5557,0,1.5464,1.5486,1.5477,1.5492,1.5516,1.5506,1.553,1.553,1.5533,1.5547,1.5532,1.5546,1.5535,1.5548,1.5542,1.5565,1.5568,1.5566,1.5564,1.5567,1.5568,1.5571,1.5568,1.5559,1.5558,1.5558,1.5558,0,1.5517,1.5512,1.5537,1.5538,1.5538,1.5557,1.5557,1.5571,1.5568,1.5586,1.559,1.5585,1.56,1.5593,1.5608,1.5604,1.5635,1.5628,1.5633,1.5632,1.5655,1.5653,1.5731,1.5741,1.5669,1.5669,1.567,0,1.555,1.5567,1.557,1.5579,1.5582,1.5596,1.5604,1.5595,1.5604,1.5611,1.5624,1.5638,1.5648,1.5672,1.567,1.5682,1.5676,1.5703,1.5677,1.5681,1.5676,1.5676,1.5677,1.5707,1.5708,1.5709,1.571,0,1.5609,1.5606,1.5618,1.563,1.564,1.5649,1.5656,1.5664,1.5655,1.5666,1.5681,1.5689,1.5706,1.5719,1.573,1.5732,1.5719,1.5718,1.5724,1.5727,1.5729,1.5729,1.5647,1.5716,1.5715,1.5715,1.5714,1.5714,1.5653,1.5668,1.5673,1.5687,1.5692,1.57,1.5713,1.5712,1.5725,1.5738,1.5732,1.575,1.5755,1.5768,1.5772,1.5786,1.5775,1.5784,1.5786,1.5788,1.5791,1.5727,1.5787,1.5787,1.5787,1.5787,1.5787,0,1.5712,1.5715,1.5728,1.574,1.5751,1.574,1.5747,1.5758,1.5774,1.578,1.5791,1.5809,1.5823,1.5822,1.5835,1.5847,1.5842,1.585,1.5849,1.585,1.58,1.5793,1.5855,1.5855,1.5855,1.5854,1.5854,1.5854,1.5744,1.5769,1.5767,1.5794,1.5796,1.5814,1.582,1.5827,1.5832,1.5853,1.5865,1.5864,1.5868,1.5881,1.5894,1.5893,1.5899,1.591,1.5907,1.586,1.5853,1.5847,1.5841,1.5911,1.5911,1.5956,1.5957,1.5957]},{"header":{"parameterUnit":"m.s-1","parameterCategory":1,"la1":30.2991,"la2":30.254,"lo1":-89.0895,"lo2":-89.0444,"dy":0.0017,"dx":0.0017,"nx":28,"ny":28,"refTime":"2024-04-11T09:00:00:Z","depth":0,"parameterNumber":3,"parameterNumberName":"V-component_of_WINDS"},"data":[0,0,0,0,0,0,0,0,0,0,0,0,0,0,0,0,0,0,0,0,0,0,0,0,0,0,0,0,0,0,0,0,0,0,0,0,0,0,0,0,0,0,0,0,0,0,0,0,0,0,0,0,0,0,0,0,0,0,-2.3397,-2.3398,0,-2.3506,-2.3508,-2.3509,-2.3504,-2.3502,-2.3501,-2.3499,-2.3612,-2.3617,-2.3621,0,0,0,0,0,0,0,0,0,0,0,0,0,-2.3185,-2.3189,-2.3397,-2.3398,-2.3399,-2.3506,-2.3508,-2.3509,-2.3504,-2.3502,-2.35,-2.3499,-2.3611,-2.3616,-2.3621,0,0,0,0,0,0,0,0,0,0,0,0,0,-2.3284,-2.319,-2.3396,-2.341,-2.3412,-2.3506,-2.3508,-2.3509,-2.3505,-2.3502,-2.35,-2.3498,-2.3609,-2.3616,-2.3622,-2.371,0,0,-2.3642,-2.3645,0,0,0,0,0,0,0,0,-2.3278,-2.3292,-2.3406,-2.3409,-2.3412,-2.3489,-2.3474,-2.3577,-2.3505,-2.347,-2.3499,-2.3497,-2.3573,-2.3583,-2.3608,-2.3715,-2.372,-2.3643,-2.3647,-2.365,-2.3652,0,0,0,0,0,0,0,-2.3271,-2.3287,-2.344,-2.3408,-2.3411,-2.3411,-2.3422,-2.3494,-2.3533,-2.3472,-2.3472,-2.3485,-2.3574,-2.3602,-2.3611,-2.3722,-2.3643,-2.3649,-2.3653,-2.3656,-2.3907,-2.391,0,0,0,0,0,0,-2.3261,-2.3281,-2.3437,-2.3443,-2.3338,-2.3417,-2.3429,-2.3467,-2.3532,-2.354,-2.3487,-2.3485,-2.3592,-2.3603,-2.3615,-2.3723,-2.365,-2.3656,-2.366,-2.3904,-2.3908,-2.3911,0,0,0,0,0,0,-2.3257,-2.3275,-2.3432,-2.3362,-2.3382,-2.3423,-2.3464,-2.347,-2.3498,-2.3543,-2.3551,-2.3508,-2.359,-2.3605,-2.3686,-2.3726,-2.3659,-2.3665,-2.3901,-2.3905,-2.3909,-2.3938,0,0,0,0,0,0,-2.3251,-2.3274,-2.3307,-2.3363,-2.3386,-2.3501,-2.3467,-2.3474,-2.3509,-2.3507,-2.3565,-2.3572,-2.359,-2.3677,-2.3693,-2.3734,-2.367,-2.3898,-2.3903,-2.3908,-2.3934,-2.3943,-2.395,0,0,0,0,0,-2.3243,-2.3311,-2.3309,-2.3327,-2.3428,-2.3504,-2.3517,-2.3535,-2.3512,-2.3547,-2.3576,-2.3571,-2.3719,-2.3685,-2.3703,-2.3747,-2.3895,-2.3902,-2.3907,-2.393,-2.3941,-2.395,0,0,0,0,0,0,-2.3258,-2.3318,-2.3317,-2.3404,-2.3449,-2.3503,-2.3546,-2.3546,-2.3598,-2.3594,-2.3615,-2.3628,-2.3709,-2.3736,-2.3697,-2.3836,-2.3805,-2.3815,-2.3815,-2.3826,-2.3834,-2.3826,-2.3676,0,0,0,0,0,-2.3272,-2.3327,-2.3377,-2.345,-2.3472,-2.3505,-2.3539,-2.3549,-2.3597,-2.3615,-2.3651,-2.3697,-2.3755,-2.3792,-2.3847,-2.3938,-2.3951,-2.3977,-2.3986,-2.3992,-2.4001,-2.4052,-2.4064,-2.393,-2.393,-2.393,0,0,-2.33,-2.334,-2.3374,-2.3454,-2.3489,-2.3547,-2.3521,-2.3583,-2.3627,-2.3625,-2.3704,-2.3731,-2.3785,-2.3871,-2.3911,-2.3896,-2.4041,-2.4,-2.4005,-2.401,-2.4059,-2.4072,-2.4083,-2.3934,-2.3934,-2.3933,0,0,-2.3381,-2.3417,-2.3482,-2.3518,-2.3573,-2.3595,-2.361,-2.3665,-2.3683,-2.3763,-2.3763,-2.3815,-2.3913,-2.3951,-2.3983,-2.4081,-2.4078,-2.4098,-2.4141,-2.4191,-2.4201,-2.4211,-2.4246,-2.4258,-2.4106,-2.4107,-2.4107,0,-2.341,-2.3497,-2.3515,-2.3578,-2.3613,-2.3614,-2.3681,-2.3715,-2.3785,-2.381,-2.3793,-2.3917,-2.3952,-2.4048,-2.4072,-2.4098,-2.4117,-2.4091,-2.4198,-2.4208,-2.4217,-2.4251,-2.4264,-2.4109,-2.4108,-2.4108,-2.4108,0,-2.3529,-2.359,-2.3636,-2.3703,-2.3744,-2.3808,-2.3837,-2.3876,-2.3883,-2.3907,-2.3988,-2.4032,-2.4096,-2.412,-2.4127,-2.4217,-2.4207,-2.4194,-2.4162,-2.4232,-2.4264,-2.4277,-2.4112,-2.4111,-2.411,-2.411,0,0,-2.3623,-2.37,-2.3717,-2.3748,-2.3809,-2.3856,-2.3921,-2.3984,-2.4018,-2.4066,-2.4122,-2.4205,-2.4194,-2.423,-2.4242,-2.4286,-2.4361,-2.4268,-2.4269,-2.4284,-2.4464,-2.4474,-2.4489,-2.436,-2.4362,-2.4364,-2.446,0,-2.3711,-2.3825,-2.3844,-2.3944,-2.4001,-2.4003,-2.406,-2.4104,-2.4128,-2.418,-2.4208,-2.4267,-2.4247,-2.4269,-2.4312,-2.4343,-2.4398,-2.4336,-2.4412,-2.4415,-2.4399,-2.4506,-2.4516,-2.4604,-2.4473,-2.4475,-2.4477,0,-2.3828,-2.388,-2.3987,-2.4041,-2.4065,-2.4116,-2.4176,-2.4225,-2.4275,-2.429,-2.4332,-2.4339,-2.4407,-2.4373,-2.4467,-2.4425,-2.4457,-2.4477,-2.4481,-2.4489,-2.445,-2.4517,-2.4632,-2.4646,-2.4496,-2.4495,-2.4493,0,-2.3886,-2.3983,-2.4059,-2.4086,-2.4151,-2.4186,-2.4215,-2.4263,-2.43,-2.4353,-2.4377,-2.4437,-2.447,-2.4517,-2.454,-2.4513,-2.4634,-2.4601,-2.4648,-2.4648,-2.4674,-2.4672,-2.4796,-2.4694,-2.4694,-2.4694,-2.4693,0,-2.3983,-2.4048,-2.4086,-2.4133,-2.4206,-2.4228,-2.43,-2.4328,-2.4371,-2.4424,-2.443,-2.448,-2.4508,-2.4562,-2.4581,-2.4657,-2.4671,-2.4686,-2.469,-2.4686,-2.4684,-2.4707,-2.4702,-2.4697,-2.4696,-2.4696,-2.4695,0,-2.406,-2.4088,-2.4171,-2.4227,-2.4242,-2.4294,-2.4341,-2.4387,-2.4412,-2.4479,-2.4496,-2.4535,-2.4599,-2.4627,-2.4706,-2.4719,-2.4806,-2.4806,-2.4789,-2.479,-2.4837,-2.4832,-2.4981,-2.5002,-2.4885,-2.4886,-2.4887,0,-2.4119,-2.417,-2.423,-2.4266,-2.4296,-2.4354,-2.4392,-2.4415,-2.4455,-2.4517,-2.4556,-2.462,-2.4672,-2.4775,-2.4811,-2.4872,-2.4873,-2.4921,-2.4882,-2.4876,-2.4874,-2.4871,-2.4877,-2.4928,-2.4929,-2.493,-2.4931,0,-2.4223,-2.4234,-2.4289,-2.4349,-2.4394,-2.4442,-2.4489,-2.4519,-2.4549,-2.4594,-2.4659,-2.47,-2.4781,-2.4845,-2.4909,-2.4939,-2.4941,-2.4943,-2.4957,-2.4953,-2.4942,-2.4949,-2.4809,-2.4939,-2.4938,-2.4938,-2.4937,-2.4937,-2.4293,-2.4338,-2.4388,-2.4449,-2.4487,-2.4532,-2.4578,-2.4609,-2.4664,-2.4731,-2.4742,-2.4812,-2.4863,-2.4948,-2.4981,-2.5037,-2.5025,-2.5045,-2.5051,-2.5056,-2.5059,-2.4933,-2.5048,-2.5048,-2.5048,-2.5048,-2.5047,0,-2.4397,-2.443,-2.4486,-2.4552,-2.46,-2.4597,-2.4649,-2.469,-2.4752,-2.4798,-2.485,-2.4926,-2.4989,-2.503,-2.5093,-2.513,-2.5133,-2.5146,-2.5144,-2.5151,-2.5065,-2.5047,-2.5143,-2.5143,-2.5143,-2.5143,-2.5143,-2.5143,-2.4457,-2.4534,-2.4551,-2.4647,-2.468,-2.4748,-2.4779,-2.482,-2.4857,-2.4942,-2.4994,-2.502,-2.5065,-2.5132,-2.519,-2.52,-2.5224,-2.5238,-2.5248,-2.5167,-2.5157,-2.5147,-2.513,-2.5243,-2.5243,-2.5329,-2.533,-2.5331]}]]